Temp
10 11 12 12 12 12 12 12 11 11 11 10 10 11 11 11 12 12 13 13 12 12 12 12 12 12 11 11 12 12 13 14 13 13 13 13 13 13 13 12 13 13 15
10 10 11 12 12 11 11 11 11 10 10 10 10 10 10 11 11 11 11 12 12 11 11 11 11 11 10 10 11 11 12 12 12 12 13 13 13 13 13 12 12 13 13
9 10 10 11 11 11 11 11 10 10 9 10 10 10 10 11 11 10 9 9 9 10 10 10 10 11 10 10 10 10 11 12 12 12 13 12 13 13 14 14 13 12 13
8 8 8 9 9 10 10 10 10 10 10 9 9 9 9 8 8 8 7 7 7 7 7 8 9 9 10 9 9 10 10 11 11 12 13 12 13 14 14 13 13 13 13
8 9 8 9 10 10 10 10 9 9 9 9 9 9 9 8 7 7 7 7 7 8 8 8 8 8 9 9 9 9 10 10 11 11 12 12 12 13 12 13 14 13 13
10 10 10 10 10 10 10 10 10 9 9 9 9 9 9 9 8 7 7 8 7 7 8 8 8 8 9 9 9 9 9 10 10 11 11 11 11 12 11 11 12 14 14
10 10 10 10 10 10 10 9 9 10 10 10 10 9 9 9 9 9 7 7 7 7 8 8 8 8 9 9 10 9 9 10 10 10 11 11 11 11 12 11 12 12 13
9 10 11 11 11 10 10 10 10 10 10 10 10 9 9 9 9 9 9 8 8 8 8 8 8 8 8 8 8 9 9 9 9 10 10 11 11 11 11 11 11 12 12
10 10 10 10 10 10 10 10 10 10 10 10 10 10 9 9 9 8 8 8 8 7 8 8 8 8 8 8 8 9 9 9 9 9 9 10 10 11 11 11 12 11 11
9 10 10 10 10 10 10 10 10 10 10 10 10 10 9 9 9 8 8 9 9 8 8 8 8 8 8 8 8 9 9 9 9 9 9 10 10 10 11 11 11 11 11
10 9 9 10 10 10 10 10 10 10 9 9 9 9 9 9 8 9 9 9 9 9 8 8 8 8 8 8 8 8 9 9 9 9 9 9 10 10 10 10 11 11 11
9 9 9 9 10 10 10 10 10 10 10 9 9 9 9 9 9 10 9 9 9 9 9 8 8 8 8 8 8 8 9 8 9 9 9 9 9 10 10 10 11 11 10
9 10 10 10 10 9 10 10 10 10 9 9 9 9 9 9 9 9 8 8 8 8 8 9 7 8 8 8 8 8 8 8 9 9 9 9 9 9 10 10 9 10 10
10 11 11 11 11 11 10 10 10 10 9 9 9 9 9 8 8 9 8 8 8 8 8 8 8 8 8 8 8 8 8 8 9 9 9 9 9 8 9 9 9 9 9
11 11 12 12 12 11 11 10 10 9 9 8 8 8 8 8 8 8 8 8 7 7 8 7 7 8 7 7 7 8 8 8 9 9 9 9 9 8 9 8 9 9 9
11 10 11 11 11 11 11 11 10 9 9 8 8 8 8 8 8 7 7 7 7 7 7 7 7 7 7 8 8 8 8 8 8 9 9 9 9 9 9 8 9 9 9
10 10 9 10 10 10 10 11 10 10 9 8 8 7 7 7 7 7 7 7 7 7 6 7 7 6 7 6 7 7 7 8 8 8 8 9 8 8 8 8 9 9 9
8 8 9 10 10 10 10 10 10 10 9 8 8 7 7 7 7 7 6 6 7 6 6 6 7 7 7 6 6 6 6 7 7 8 8 9 8 8 8 9 9 9 9
8 8 8 8 9 9 9 9 10 10 9 9 8 7 7 6 6 6 6 6 6 6 6 6 6 6 6 6 5 5 5 5 6 6 6 7 7 8 8 7 7 7 8
6 6 6 6 8 8 8 9 9 9 9 9 8 7 7 6 6 6 6 6 6 5 5 5 5 6 6 6 5 5 5 5 4 5 4 5 5 5 4 5 5 6 6
5 5 5 6 6 7 8 8 8 8 9 8 8 7 7 6 6 6 5 5 5 5 5 4 5 5 5 5 5 5 5 6 5 4 4 4 4 4 5 4 5 5 4
5 5 5 5 5 7 7 7 7 8 8 8 8 7 6 6 5 5 5 4 4 4 4 4 4 4 4 4 4 5 5 5 5 5 5 5 5 6 5 5 5 5 5
4 4 4 4 5 6 5 5 7 7 7 7 7 8 6 6 5 5 4 4 4 4 4 4 4 4 3 3 4 4 4 4 4 4 4 3 4 4 4 4 4 4 5
3 3 3 3 4 4 4 4 5 5 6 6 6 7 7 6 5 5 4 4 4 3 3 4 3 3 3 3 3 3 2 3 3 3 3 3 3 3 3 3 3 3 3
2 2 2 2 3 3 3 4 4 4 5 5 5 5 5 5 5 5 4 4 4 4 3 3 3 3 3 3 2 2 2 2 2 2 2 2 2 2 2 2 2 2 2
0 1 1 1 1 2 2 3 3 3 4 4 4 5 4 3 4 4 4 3 3 3 3 3 2 3 2 2 2 2 1 1 1 1 1 1 1 1 1 1 1 0 0
Height
1469 1471 1472 1473 1474 1477 1480 1482 1482 1481 1480 1480 1479 1477 1475 1473 1471 1468 1467 1466 1465 1465 1465 1465 1466 1468 1470 1473 1476 1478 1479 1480 1484 1487 1486 1487 1488 1490 1491 1494 1496 1497 1498
1466 1467 1468 1469 1472 1474 1476 1477 1478 1478 1476 1475 1474 1472 1470 1468 1465 1462 1459 1457 1457 1457 1457 1457 1458 1460 1462 1464 1468 1471 1472 1474 1478 1480 1480 1479 1480 1478 1482 1485 1486 1488 1491
1464 1467 1468 1468 1469 1472 1473 1474 1474 1474 1473 1472 1470 1467 1464 1461 1459 1456 1453 1451 1449 1449 1449 1450 1450 1452 1453 1455 1459 1462 1464 1467 1469 1471 1474 1471 1467 1472 1470 1472 1476 1479 1481
1461 1463 1465 1468 1468 1469 1469 1470 1470 1470 1469 1468 1467 1464 1460 1457 1454 1451 1447 1445 1444 1443 1442 1442 1442 1443 1445 1446 1449 1453 1454 1458 1458 1462 1460 1463 1465 1465 1466 1464 1465 1469 1471
1458 1461 1464 1466 1466 1466 1466 1466 1466 1466 1465 1463 1463 1460 1456 1453 1449 1444 1441 1439 1438 1437 1435 1435 1435 1436 1437 1439 1441 1444 1445 1446 1450 1450 1452 1453 1455 1460 1460 1458 1459 1460 1461
1456 1459 1462 1463 1464 1464 1462 1462 1462 1462 1461 1460 1458 1455 1450 1448 1444 1440 1436 1434 1433 1431 1430 1429 1429 1430 1431 1431 1433 1435 1437 1437 1439 1441 1442 1443 1446 1447 1451 1449 1456 1453 1453
1457 1457 1458 1459 1459 1459 1459 1458 1457 1457 1456 1455 1453 1450 1447 1445 1440 1436 1432 1429 1427 1425 1424 1424 1424 1423 1424 1425 1426 1426 1427 1428 1428 1430 1431 1435 1435 1439 1441 1444 1443 1447 1447
1458 1457 1456 1456 1456 1456 1455 1454 1454 1453 1451 1449 1448 1446 1444 1442 1437 1432 1428 1425 1422 1419 1417 1417 1417 1417 1418 1417 1417 1418 1418 1419 1418 1419 1421 1424 1426 1429 1431 1434 1437 1439 1440
1457 1456 1455 1454 1453 1452 1451 1450 1449 1448 1447 1445 1444 1442 1440 1437 1433 1430 1426 1422 1418 1413 1411 1409 1408 1409 1409 1408 1409 1409 1410 1410 1410 1410 1412 1414 1416 1419 1421 1424 1428 1430 1430
1455 1453 1452 1451 1450 1449 1448 1446 1445 1444 1443 1442 1441 1438 1436 1434 1431 1427 1423 1418 1414 1409 1406 1403 1401 1401 1400 1400 1400 1401 1402 1402 1402 1403 1404 1405 1408 1411 1412 1415 1417 1420 1423
1452 1450 1448 1446 1444 1443 1442 1441 1440 1439 1439 1438 1436 1434 1432 1430 1427 1423 1419 1415 1410 1404 1400 1397 1395 1393 1392 1392 1392 1393 1394 1394 1394 1395 1395 1396 1400 1402 1404 1407 1409 1411 1413
1447 1444 1442 1441 1439 1437 1436 1435 1435 1434 1433 1433 1432 1430 1428 1425 1422 1418 1415 1411 1406 1402 1396 1392 1389 1387 1387 1387 1387 1386 1386 1385 1385 1386 1388 1389 1392 1394 1398 1400 1401 1403 1405
1444 1440 1438 1435 1433 1432 1431 1429 1427 1427 1426 1426 1426 1424 1422 1420 1417 1413 1410 1407 1403 1398 1393 1387 1384 1382 1380 1380 1380 1379 1378 1378 1378 1379 1380 1381 1384 1386 1389 1391 1394 1395 1397
1441 1438 1435 1432 1430 1427 1426 1424 1422 1419 1418 1418 1418 1418 1416 1415 1413 1409 1406 1402 1399 1395 1391 1385 1381 1378 1376 1374 1371 1371 1370 1370 1370 1371 1374 1375 1377 1378 1381 1384 1387 1389 1390
1441 1438 1434 1431 1428 1424 1422 1419 1416 1414 1412 1412 1411 1411 1410 1409 1407 1405 1402 1398 1395 1392 1389 1385 1381 1377 1373 1368 1364 1363 1362 1363 1363 1365 1367 1369 1371 1373 1374 1377 1379 1381 1383
1441 1438 1433 1430 1426 1422 1418 1414 1412 1409 1407 1406 1405 1404 1403 1402 1401 1399 1397 1395 1392 1388 1387 1384 1380 1376 1372 1366 1359 1356 1356 1356 1357 1358 1361 1363 1365 1366 1369 1370 1373 1374 1374
1439 1435 1431 1427 1423 1418 1414 1409 1406 1403 1402 1401 1401 1399 1397 1395 1394 1394 1392 1390 1388 1386 1384 1381 1378 1374 1369 1364 1358 1351 1350 1350 1351 1352 1354 1357 1358 1360 1361 1362 1364 1365 1364
1437 1433 1428 1422 1418 1414 1408 1404 1401 1398 1395 1394 1394 1394 1392 1390 1388 1387 1387 1386 1383 1383 1381 1379 1376 1372 1368 1364 1359 1353 1348 1347 1347 1348 1350 1351 1351 1351 1353 1354 1353 1352 1355
1431 1426 1422 1417 1411 1407 1404 1399 1395 1392 1388 1387 1386 1387 1387 1385 1384 1382 1381 1380 1380 1378 1378 1376 1374 1371 1367 1365 1361 1357 1352 1348 1346 1346 1346 1346 1345 1344 1344 1345 1346 1346 1349
1423 1418 1414 1409 1404 1401 1397 1392 1389 1385 1382 1380 1379 1379 1379 1379 1378 1377 1377 1375 1375 1375 1374 1374 1372 1370 1367 1365 1362 1360 1357 1354 1351 1349 1348 1348 1346 1343 1343 1344 1344 1346 1346
1413 1409 1405 1401 1396 1392 1388 1384 1382 1379 1377 1375 1372 1371 1370 1372 1372 1371 1371 1371 1371 1371 1371 1371 1370 1369 1367 1364 1362 1360 1359 1356 1355 1354 1352 1351 1352 1351 1350 1350 1349 1351 1351
1401 1398 1394 1390 1386 1383 1380 1375 1373 1370 1369 1367 1365 1362 1363 1364 1365 1365 1364 1366 1367 1366 1367 1368 1368 1368 1365 1363 1361 1360 1359 1357 1356 1355 1354 1353 1353 1352 1352 1352 1352 1352 1352
1398 1393 1386 1379 1376 1373 1371 1366 1362 1361 1359 1357 1357 1355 1356 1356 1357 1359 1359 1359 1361 1362 1362 1363 1364 1364 1364 1362 1360 1359 1358 1357 1356 1355 1354 1354 1355 1354 1354 1353 1354 1355 1356
1386 1383 1378 1372 1367 1365 1363 1360 1354 1352 1349 1347 1347 1347 1347 1347 1349 1350 1353 1353 1354 1356 1357 1357 1359 1360 1360 1361 1360 1359 1358 1358 1357 1356 1356 1356 1356 1356 1355 1355 1356 1357 1357
1380 1376 1369 1364 1358 1354 1351 1349 1346 1343 1340 1337 1336 1337 1337 1338 1340 1342 1344 1346 1348 1350 1352 1353 1354 1356 1357 1357 1358 1358 1358 1358 1358 1358 1357 1357 1357 1356 1357 1357 1358 1358 1359
1374 1367 1361 1355 1349 1345 1340 1337 1337 1334 1331 1327 1326 1326 1327 1328 1332 1335 1337 1340 1342 1345 1346 1348 1350 1351 1353 1354 1356 1356 1357 1357 1358 1358 1358 1358 1358 1358 1358 1358 1358 1358 1359
Wind_Speed
15 16 14 16 17 18 17 18 17 18 18 17 17 18 19 21 23 25 28 29 30 29 31 33 34 35 32 30 30 31 37 39 35 36 37 40 42 42 44 32 32 34 38
15 16 16 17 16 17 17 16 16 16 15 15 17 19 19 21 23 24 26 28 29 29 29 32 32 33 32 31 30 31 33 40 38 38 27 26 34 43 43 41 36 36 36
13 12 13 14 15 15 14 15 14 13 13 16 17 19 21 22 23 23 24 20 22 27 29 31 31 31 31 30 31 32 34 35 37 46 33 14 20 19 32 41 47 38 39
8 9 7 8 9 11 14 14 13 13 14 15 17 18 20 21 23 24 23 23 22 23 27 28 31 32 31 30 31 31 36 36 39 37 49 43 28 17 18 22 29 41 48
1 3 3 7 10 11 12 13 14 14 14 16 16 19 18 21 26 25 21 20 21 22 22 24 28 30 32 33 31 30 33 38 41 40 36 46 43 44 38 22 20 26 35
8 4 2 5 8 10 11 12 13 13 15 16 17 18 18 21 23 22 22 21 21 22 21 22 24 27 29 31 32 33 35 38 42 44 40 42 35 38 43 38 33 26 25
3 2 3 6 8 9 11 11 12 12 14 16 17 17 18 20 23 22 20 22 24 24 23 21 24 27 30 32 34 34 35 38 44 46 47 42 44 38 38 37 40 39 36
6 7 8 8 9 10 10 12 12 13 13 13 13 15 17 21 20 20 21 20 23 24 23 24 24 26 29 32 32 35 35 35 41 46 47 46 44 43 42 37 32 34 33
9 10 11 13 13 14 14 14 13 12 11 11 12 14 16 18 18 19 20 21 24 23 24 24 26 26 28 30 33 34 35 36 37 41 45 45 44 42 41 41 46 32 29
12 13 15 16 16 17 18 18 18 17 15 14 15 15 15 16 17 20 20 21 23 21 20 22 21 25 27 27 30 32 31 34 37 38 40 42 43 40 39 39 37 39 41
18 19 18 17 19 20 20 21 22 22 21 19 18 18 17 16 17 18 18 21 21 21 19 19 20 22 23 26 28 31 32 34 38 37 37 39 38 37 38 38 37 38 40
16 16 16 21 25 25 23 24 24 24 23 22 22 21 20 18 18 17 18 19 19 21 22 19 20 19 20 22 25 28 31 33 36 36 34 35 34 36 35 33 36 38 36
17 14 14 15 16 18 22 25 28 29 26 24 23 23 21 21 19 19 18 17 17 20 20 20 16 18 19 23 26 28 29 30 33 33 32 34 36 35 36 36 33 34 34
20 17 17 16 15 16 19 20 22 24 29 26 23 23 22 22 20 19 18 17 16 16 19 19 15 16 20 24 22 25 28 31 29 30 29 29 31 31 31 34 33 31 31
27 23 21 20 19 19 18 19 21 21 25 26 23 23 23 22 21 20 19 17 16 15 16 16 16 16 17 18 22 23 25 28 28 28 29 27 28 27 28 31 30 30 34
24 29 26 25 25 25 22 20 21 19 18 24 25 23 22 22 21 20 18 17 16 14 14 13 14 15 16 20 18 25 25 22 24 25 26 28 29 27 30 30 35 31 32
24 27 28 28 27 25 26 22 19 18 21 23 24 23 22 21 20 19 18 16 16 14 12 12 14 13 18 20 25 9 11 16 21 25 24 29 29 30 37 37 33 35 40
26 26 28 33 25 26 24 24 22 20 21 23 24 24 23 22 20 18 17 16 14 12 11 10 10 13 15 18 21 23 7 7 14 21 23 26 29 31 27 29 35 40 39
34 35 32 32 31 30 27 24 23 23 22 23 25 23 23 22 21 19 17 15 14 11 10 9 9 9 10 10 13 18 16 5 0 3 7 12 15 17 18 19 23 21 18
32 30 29 29 32 29 28 26 25 25 25 24 25 23 24 24 22 20 18 15 13 12 9 8 7 6 6 6 6 8 10 13 12 15 16 15 14 13 8 10 17 19 18
31 31 30 28 30 30 30 27 26 30 26 24 24 25 25 25 23 21 19 17 14 12 10 7 6 5 4 4 3 3 3 3 6 7 11 12 11 12 13 14 15 16 14
40 38 34 34 36 32 29 32 33 33 30 27 25 27 28 26 25 24 21 19 17 15 12 10 8 7 5 4 3 2 1 1 1 3 4 5 2 3 2 4 4 2 4
34 35 34 38 39 36 31 33 37 33 31 30 29 27 29 29 27 27 25 22 21 18 16 13 10 8 6 5 4 3 2 2 2 3 5 6 5 6 6 7 6 5 5
38 34 33 34 35 32 31 29 33 31 32 30 30 30 29 32 31 29 28 25 24 22 19 16 13 10 8 6 5 4 3 3 2 4 6 6 6 6 6 6 6 6 6
38 35 35 36 38 35 32 32 30 30 31 31 31 33 29 32 34 33 31 29 26 23 20 18 15 13 10 8 7 5 4 3 4 4 5 5 6 6 6 6 5 5 4
40 40 37 36 38 36 34 33 28 27 29 31 31 32 31 28 34 36 34 30 27 23 22 19 17 14 12 10 9 8 7 6 5 4 4 4 3 3 3 2 2 2 2
Wind_Direction
249 250 242 230 220 231 242 252 264 276 282 287 293 295 294 294 294 286 278 271 267 264 257 253 248 244 239 237 236 241 237 238 245 237 256 260 256 249 249 244 241 243 246
258 246 232 232 236 238 246 258 268 277 284 291 296 297 295 293 296 293 286 273 263 260 258 253 249 245 242 240 237 235 239 241 240 237 241 241 248 254 248 245 244 242 244
267 264 235 233 233 241 252 261 271 279 291 297 300 305 304 303 305 303 296 288 274 264 257 251 247 245 242 241 239 235 233 237 240 238 230 239 236 249 258 251 244 241 240
259 260 251 236 239 247 256 266 270 281 292 295 303 312 308 307 308 303 298 286 282 271 266 255 246 244 243 242 240 239 236 234 236 238 236 238 241 235 246 232 241 240 243
161 235 248 239 245 259 274 276 278 281 287 298 302 313 315 316 312 307 308 293 291 290 279 262 252 244 244 247 245 241 239 238 236 233 233 238 247 240 248 245 242 237 244
100 119 190 252 275 278 277 277 278 279 287 296 301 310 315 325 327 319 303 300 291 289 287 272 255 249 247 247 249 250 247 244 243 238 237 234 235 235 241 238 244 244 247
137 176 243 266 275 282 282 277 278 282 286 293 300 313 316 316 323 330 321 302 297 290 281 280 267 258 255 253 252 252 255 254 246 242 240 239 237 235 240 246 249 248 256
294 287 278 271 273 276 278 276 275 283 288 292 305 309 314 318 322 329 329 321 302 296 293 277 268 266 265 258 253 253 254 259 252 244 240 240 238 239 236 237 241 252 253
303 291 282 279 278 274 273 275 277 279 287 292 296 303 311 321 331 329 330 334 328 296 283 285 275 263 267 260 252 253 253 258 256 254 249 244 240 237 239 245 244 239 246
309 300 290 279 276 277 275 274 276 275 278 285 292 299 305 312 320 322 334 332 338 329 304 291 282 273 273 258 252 252 255 257 259 257 254 250 247 243 241 243 245 242 243
302 300 290 285 278 277 277 277 275 276 278 280 282 289 297 306 311 320 332 344 347 339 314 294 284 277 275 256 256 255 254 258 260 259 258 252 248 243 244 244 245 247 250
316 314 297 283 276 275 272 274 271 270 272 272 277 285 292 298 305 313 320 333 336 340 343 311 282 287 273 267 259 256 258 256 258 259 256 250 243 243 242 240 244 245 242
331 331 323 309 298 283 278 278 271 266 264 267 272 277 286 293 298 304 311 323 334 343 344 331 293 283 281 277 265 261 262 257 259 256 255 252 247 244 243 245 243 246 251
345 346 349 345 326 302 291 294 289 275 258 259 268 276 279 284 290 295 300 307 321 336 350 0 345 314 292 276 265 269 262 260 258 253 252 254 248 247 252 254 242 241 248
348 348 344 343 342 335 317 301 298 292 264 254 261 269 273 279 285 291 297 302 311 320 334 341 353 2 354 313 273 262 260 258 257 252 248 246 245 249 240 253 255 254 251
344 341 335 330 324 323 320 315 306 294 277 259 265 268 268 274 279 282 287 295 301 307 321 342 349 360 340 353 325 265 260 262 257 253 250 248 254 250 252 254 256 257 251
331 331 330 318 319 323 312 307 306 289 277 271 272 270 269 268 271 277 281 286 293 300 307 323 340 349 359 4 5 325 260 263 250 246 249 241 249 248 254 259 257 252 247
320 316 319 322 308 318 319 305 300 296 282 274 271 270 268 268 268 271 276 281 285 291 286 299 316 334 354 8 16 15 337 276 256 255 258 257 256 256 259 257 251 248 247
306 306 306 309 306 302 311 302 301 296 290 279 271 269 268 265 266 267 268 272 276 279 282 284 298 312 326 346 7 20 18 25 279 271 261 262 261 256 263 257 236 231 225
305 302 306 306 308 302 303 300 296 288 283 288 275 265 263 261 261 263 263 262 263 268 270 279 289 298 310 332 351 21 27 41 81 101 97 87 77 85 146 165 165 154 144
302 303 301 300 302 306 300 294 298 291 290 280 275 258 255 257 255 253 255 254 251 254 257 262 269 276 289 313 338 2 4 9 18 51 82 90 87 88 94 101 114 117 117
309 309 306 303 311 306 295 292 294 291 290 276 271 261 252 252 251 249 245 246 243 241 245 248 257 266 267 276 285 292 298 347 94 112 99 87 75 311 13 58 76 48 50
304 305 304 304 308 309 301 293 290 289 285 279 266 264 253 249 247 246 243 238 238 236 235 240 248 256 257 254 259 260 250 218 196 148 122 113 119 112 122 118 125 134 155
309 310 306 303 300 298 295 289 292 295 287 278 271 261 252 246 243 241 240 237 235 233 233 232 239 243 247 245 238 230 215 188 175 146 141 135 129 130 127 126 129 132 132
309 309 306 300 298 300 294 291 291 292 287 281 273 263 255 247 243 241 240 238 237 234 234 234 233 238 239 237 230 220 212 195 166 156 146 137 131 126 121 119 115 109 107
311 307 303 301 298 298 293 289 289 289 288 283 274 266 258 249 248 241 237 234 232 231 230 229 230 229 234 229 224 217 206 198 192 182 175 160 137 122 116 117 118 121 121